Delhi, Ontario

1:24 PM EST on January 16, 2018 (GMT -0500)
Delhi

Weather History for CXDI - October, 2013

Change the Weather History Date:

Friday, October 11, 2013

  Actual Average Record
Temperature  
Mean Temperature 56 °F -  
Max Temperature 70 °F - - ()
Min Temperature 41 °F - - ()
Degree Days  
Heating Degree Days 10    
Growing Degree Days 6 (Base 50)    
Moisture  
Dew Point 46 °F    
Average Humidity 75    
Maximum Humidity 96    
Minimum Humidity 33    
Precipitation  
Precipitation 0.00 in - - ()
Sea Level Pressure  
Sea Level Pressure 30.12 in    
Wind  
Wind Speed - ()    
Max Wind Speed -    
Max Gust Speed -    
T = Trace of Precipitation, MM = Missing Value Source: Averaged Metar Reports

Daily Weather History Graph

Daily Weather History Graph

Search for Another Location

Airport or City:

Trip Planner

Search our weather history database for the weather conditions in past years. The results will help you decide how hot, cold, wet, or windy it might be!

Date:

Astronomy

Oct. 11, 2013 Rise Set
Actual Time 7:31 AM EDT 6:45 PM EDT
Civil Twilight 7:02 AM EDT 7:14 PM EDT
Nautical Twilight 6:29 AM EDT 7:46 PM EDT
Astronomical Twilight 5:57 AM EDT 8:19 PM EDT
Moon 2:16 PM EDT (10/11) No Moon Set
Length of Visible Light 12h 11m
Length of Day
11h 14m
Waxing Crescent, 47% of the Moon is Illuminated
Oct 11
Waxing Crescent
Oct 11
First Quarter
Oct 18
Full
Oct 26
Last Quarter
Nov 3
New

Hourly Weather History & Observations

Time (EDT) Temp. Dew Point Humidity Pressure Visibility Wind Dir Wind Speed Gust Speed Precip Events Conditions
12:00 AM 48.2 °F 46.6 °F 94% 30.13 in - North - - N/A   Unknown
1:00 AM 46.8 °F 45.3 °F 95% 30.12 in - North - - N/A   Unknown
2:00 AM 48 °F 46 °F 92% 30.12 in - Calm Calm - -  
2:00 AM 47.7 °F 46.4 °F 95% 30.12 in - North - - N/A   Unknown
3:00 AM 47.3 °F 45.7 °F 94% 30.11 in - North - - N/A   Unknown
4:00 AM 44.2 °F 42.6 °F 94% 30.11 in - North - - N/A   Unknown
5:00 AM 44.8 °F 43.3 °F 95% 30.12 in - North - - N/A   Unknown
6:00 AM 42.8 °F 41.5 °F 95% 30.12 in - North - - N/A   Unknown
7:00 AM 42.4 °F 41.2 °F 95% 30.13 in - North - - N/A   Unknown
8:00 AM 48 °F 47 °F 96% 30.14 in - Calm Calm - -  
8:00 AM 48.2 °F 47.1 °F 96% 30.14 in - North - - N/A   Unknown
9:00 AM 50.9 °F 49.8 °F 96% 30.15 in - North - - N/A   Unknown
10:00 AM 52.3 °F 51.3 °F 96% 30.17 in - North - - N/A   Unknown
11:00 AM 55.8 °F 52.3 °F 88% 30.17 in - North - - N/A   Unknown
12:00 PM 60.6 °F 52.2 °F 74% 30.15 in - North - - N/A   Unknown
1:00 PM 64.9 °F 50.2 °F 59% 30.13 in - North - - N/A   Unknown
2:00 PM 68 °F 47 °F 35% 30.11 in - Calm Calm - -  
2:00 PM 68.2 °F 46.8 °F 46% 30.11 in - North - - N/A   Unknown
3:00 PM 69.3 °F 41.2 °F 36% 30.10 in - North - - N/A   Unknown
4:00 PM 70.3 °F 40.1 °F 33% 30.09 in - North - - N/A   Unknown
5:00 PM 69.6 °F 41.2 °F 36% 30.09 in - North - - N/A   Unknown
6:00 PM 67.3 °F 44.1 °F 43% 30.10 in - North - - N/A   Unknown
7:00 PM 60.8 °F 43.5 °F 53% 30.12 in - North - - N/A   Unknown
8:00 PM 55 °F 44 °F 58% 30.12 in - Calm Calm - -  
8:00 PM 54.7 °F 44.2 °F 68% 30.12 in - North - - N/A   Unknown
9:00 PM 53.2 °F 44.4 °F 72% 30.12 in - North - - N/A   Unknown
10:00 PM 51.1 °F 45.5 °F 81% 30.12 in - North - - N/A   Unknown
11:00 PM 50.5 °F 43.9 °F 78% 30.11 in - North - - N/A   Unknown